Waarnemingen

Advertentie
Mijn weer
Bujaraloz, Spanje (8165): temperatuur & dauwpunt: 14.11.2018 12:00:00 - 20.11.2018 12:00:00 (CET)Bujaraloz, Spanje (8165): windsnelheid & windstoten: 14.11.2018 12:00:00 - 20.11.2018 12:00:00 (CET)Bujaraloz, Spanje (8165): windrichting: 14.11.2018 12:00:00 - 20.11.2018 12:00:00 (CET)Bujaraloz, Spanje (8165): luchtdruk: 14.11.2018 12:00:00 - 20.11.2018 12:00:00 (CET)Bujaraloz, Spanje (8165): zicht: 14.11.2018 12:00:00 - 20.11.2018 12:00:00 (CET)Bujaraloz, Spanje (8165): Zonneschijnduur: 14.11.2018 12:00:00 - 20.11.2018 12:00:00 (CET)Bujaraloz, Spanje (8165): neerslag: 14.11.2018 12:00:00 - 20.11.2018 12:00:00 (CET)
Datum & Tijd tt [°C] td [°C] ff [km/u] ff [kn] fx [km/u] fx [kn] dd ppp [hPa] vv [km] sd [min] rr [mm]
20.11.2018 12:00:00 10,8 9,2 8 5 13 7 O 999,4 20 3 0,0
20.11.2018 11:00:00 9,6 9,0 5 3 10 5 ZO 999,9 13 0 0,0
20.11.2018 10:00:00 9,0 8,5 11 6 14 7 WNW 999,9 10 0 0,0
20.11.2018 09:00:00 9,3 8,5 4 2 10 5 ONO 999,5 15 0 0,0
20.11.2018 08:00:00 8,9 8,4 9 5 10 6 N 999,1 15 0 0,0
20.11.2018 07:00:00 8,7 8,3 6 4 12 7 NO 998,9 10 0 -
20.11.2018 06:00:00 8,9 7,0 5 3 11 6 OZO 998,9 20 0 0,0
20.11.2018 05:00:00 8,6 7,4 5 3 9 5 ZZO 998,8 7 0 0,0
20.11.2018 04:00:00 8,9 6,5 5 3 8 4 NNO 998,9 20 0 0,0
20.11.2018 03:00:00 9,1 6,5 5 3 11 6 WZW 999,0 20 0 0,0
20.11.2018 02:00:00 9,4 6,5 4 2 14 8 ZW 999,0 20 0 0,0
20.11.2018 01:00:00 9,8 6,7 14 7 16 9 W 999,2 20 0 -
20.11.2018 00:00:00 9,9 7,8 11 6 15 8 W 999,2 20 0 0,0
19.11.2018 23:00:00 10,1 8,3 10 5 16 8 WZW 999,2 20 0 0,0
19.11.2018 22:00:00 11,0 8,5 14 7 16 9 ZW 999,0 20 0 0,0
19.11.2018 21:00:00 11,5 8,7 7 4 11 6 ZW 998,9 20 0 0,0
19.11.2018 20:00:00 11,1 8,8 9 5 14 7 ZZW 999,0 20 0 0,0
19.11.2018 19:00:00 11,8 9,0 10 5 12 6 ZZW 998,9 20 0 -
19.11.2018 18:00:00 12,2 9,0 8 4 11 6 WZW 999,0 20 0 0,0
19.11.2018 17:00:00 12,5 9,2 7 4 16 9 W 999,1 20 0 0,0
19.11.2018 16:00:00 12,8 9,0 11 6 16 9 W 999,2 20 0 0,0
19.11.2018 15:00:00 12,9 8,8 12 6 16 9 W 999,6 20 0 0,0
19.11.2018 14:00:00 12,9 8,8 8 5 16 8 WNW 1000,3 20 0 0,0
19.11.2018 13:00:00 12,7 8,4 5 3 11 6 N 1001,2 20 0 -
19.11.2018 12:00:00 12,2 8,1 5 3 13 7 NNW 1001,9 20 0 0,0
19.11.2018 11:00:00 11,7 9,3 6 3 14 8 WNW 1002,6 20 18 0,0
19.11.2018 10:00:00 10,3 9,7 11 6 15 8 W 1002,8 17 0 0,0
19.11.2018 09:00:00 9,8 9,2 12 7 15 8 W 1002,9 16 0 0,0
19.11.2018 08:00:00 9,9 8,8 7 4 10 5 W 1003,1 19 0 0,0
19.11.2018 07:00:00 10,2 8,8 3 2 6 3 W 1003,2 20 0 -
19.11.2018 06:00:00 11,0 8,5 5 3 17 9 O 1003,3 20 0 0,0
19.11.2018 05:00:00 11,1 8,5 11 6 18 10 NO 1003,5 20 0 0,0
19.11.2018 04:00:00 11,1 8,7 6 3 12 7 NNO 1004,2 20 0 0,0
19.11.2018 03:00:00 11,1 8,8 10 6 20 11 O 1004,9 20 0 0,0
19.11.2018 02:00:00 11,2 8,8 13 7 21 12 O 1005,6 20 0 0,0
19.11.2018 01:00:00 11,3 8,9 13 7 22 12 ONO 1006,4 20 0 -
19.11.2018 00:00:00 11,3 8,5 15 8 24 13 O 1006,9 20 0 0,0
18.11.2018 23:00:00 11,4 8,7 17 9 27 15 O 1007,1 20 0 0,0
18.11.2018 22:00:00 11,6 8,4 21 11 29 16 O 1007,2 20 0 0,0
18.11.2018 21:00:00 11,7 8,8 10 5 25 13 O 1007,4 20 0 0,0
18.11.2018 20:00:00 12,1 8,8 15 8 22 12 O 1007,2 20 0 0,0
18.11.2018 19:00:00 12,3 8,5 16 9 28 15 OZO 1007,5 20 0 -
18.11.2018 18:00:00 12,6 8,3 21 11 29 16 O 1007,4 20 0 0,0
18.11.2018 17:00:00 13,0 8,5 19 11 36 20 OZO 1007,3 20 0 0,0
18.11.2018 16:00:00 13,2 9,7 16 8 26 14 O 1007,4 20 0 0,0
18.11.2018 15:00:00 12,6 9,4 18 10 27 15 ONO 1007,7 20 0 0,0
18.11.2018 14:00:00 11,7 9,3 19 11 30 16 ONO 1008,4 20 0 0,0
18.11.2018 13:00:00 11,2 9,3 19 11 32 17 ONO 1009,0 20 0 -
18.11.2018 12:00:00 10,7 9,3 23 13 34 18 ONO 1009,8 20 1 0,0
18.11.2018 11:00:00 10,4 9,8 21 11 29 16 ONO 1010,2 20 0 0,4
18.11.2018 10:00:00 10,4 9,8 18 10 31 17 NO 1010,1 20 0 0,0
18.11.2018 09:00:00 10,5 10,0 20 11 25 13 ONO 1009,7 15 0 0,2
18.11.2018 08:00:00 10,7 10,4 14 8 29 16 ONO 1009,5 6 0 2,0
18.11.2018 07:00:00 11,0 10,0 18 10 24 13 O 1009,1 11 0 -
18.11.2018 06:00:00 11,1 10,0 17 9 29 15 O 1009,1 18 0 2,0
18.11.2018 05:00:00 11,4 10,3 17 9 25 13 O 1009,3 3,0 0 1,0
18.11.2018 04:00:00 12,0 9,9 16 9 25 14 O 1009,7 20 0 0,0
18.11.2018 03:00:00 12,3 9,8 18 10 26 14 O 1010,0 20 0 0,0
18.11.2018 02:00:00 12,7 10,0 18 10 23 12 O 1010,3 20 0 0,0
18.11.2018 01:00:00 12,7 10,4 16 9 24 13 O 1010,8 20 0 -
18.11.2018 00:00:00 12,9 10,4 16 8 22 12 O 1011,3 20 0 0,0
17.11.2018 23:00:00 12,9 10,3 15 8 20 11 O 1011,7 20 0 0,0
17.11.2018 22:00:00 13,2 10,2 13 7 20 11 O 1012,2 20 0 0,0
17.11.2018 21:00:00 13,5 11,0 13 7 18 10 O 1012,2 20 0 0,0
17.11.2018 20:00:00 13,7 11,2 11 6 20 11 O 1012,4 20 0 0,0
17.11.2018 19:00:00 14,3 11,1 11 6 17 9 O 1012,6 20 0 -
17.11.2018 18:00:00 14,9 10,9 11 6 16 9 O 1012,5 20 0 0,0
17.11.2018 17:00:00 15,2 11,6 8 5 13 7 O 1012,8 15 0 0,0
17.11.2018 16:00:00 15,2 12,1 6 3 9 5 O 1013,1 18 0 0,0
17.11.2018 15:00:00 14,8 12,1 3 1 9 5 N 1013,9 15 12 0,0
17.11.2018 14:00:00 14,1 12,3 6 3 10 6 NNO 1014,6 9 8 0,0
17.11.2018 13:00:00 14,0 12,4 3 1 7 4 W 1015,1 9 2 -
17.11.2018 12:00:00 12,8 12,3 3 1 5 3 Z 1016,1 6 0 0,0
17.11.2018 11:00:00 12,1 12,0 3 1 10 6 W 1016,8 4,4 0 0,0
17.11.2018 10:00:00 11,7 11,6 5 3 16 8 WNW 1017,2 0,3 0 0,0
17.11.2018 09:00:00 11,3 11,1 16 9 20 11 W 1017,3 0,2 0 0,0
17.11.2018 08:00:00 11,5 11,3 12 6 14 8 W 1017,1 0,2 0 0,0
17.11.2018 07:00:00 12,7 11,9 4 2 14 8 N 1016,9 3,1 0 -
17.11.2018 06:00:00 13,4 12,0 5 3 12 6 O 1016,8 13 0 0,0
17.11.2018 05:00:00 13,4 12,0 8 5 18 10 O 1017,0 12 0 0,0
17.11.2018 04:00:00 13,7 12,1 13 7 16 8 ONO 1017,3 14 0 0,0
17.11.2018 03:00:00 13,7 12,6 10 5 13 7 O 1017,9 12 0 0,0
17.11.2018 02:00:00 13,7 13,1 7 4 11 6 ONO 1018,0 8 0 0,0
17.11.2018 01:00:00 13,7 13,0 8 4 10 5 O 1018,3 10 0 -
17.11.2018 00:00:00 13,6 12,5 8 4 11 6 O 1018,4 10 0 0,0
16.11.2018 23:00:00 13,6 13,0 7 4 11 6 O 1018,4 9 0 0,0
16.11.2018 22:00:00 14,0 12,8 8 4 13 7 O 1018,5 14 0 0,0
16.11.2018 21:00:00 14,5 13,1 7 4 18 10 O 1018,2 17 0 0,0
16.11.2018 20:00:00 14,9 13,1 10 5 19 11 OZO 1018,3 20 0 0,0
16.11.2018 19:00:00 15,4 13,3 14 8 19 11 O 1018,2 18 0 -
16.11.2018 18:00:00 16,3 13,9 13 7 18 10 O 1017,8 20 15 0,0
16.11.2018 17:00:00 16,6 13,9 13 7 19 10 ONO 1017,8 20 48 0,0
16.11.2018 16:00:00 16,8 13,9 13 7 16 9 ONO 1017,8 20 60 0,0
16.11.2018 15:00:00 16,3 13,9 10 5 14 8 NO 1018,3 17 58 0,0
16.11.2018 14:00:00 15,9 13,4 4 2 8 4 NNO 1019,2 14 53 0,0
16.11.2018 13:00:00 14,9 13,1 5 3 9 5 NNO 1019,8 16 25 -
16.11.2018 12:00:00 14,3 12,0 4 2 12 7 ONO 1020,4 13 26 0,0
16.11.2018 11:00:00 13,2 12,8 9 5 16 8 ONO 1020,9 8 0 0,0
16.11.2018 10:00:00 12,6 12,4 6 4 8 4 ONO 1020,8 2,8 4 0,0
16.11.2018 09:00:00 12,3 12,1 4 2 10 6 OZO 1020,6 0,2 0 0,0
16.11.2018 08:00:00 11,9 11,7 8 4 10 5 NO - - 0 0,0
16.11.2018 07:00:00 12,1 11,9 6 4 9 5 ONO - - 0 -
16.11.2018 06:00:00 12,2 12,0 6 3 9 5 NNO 1019,6 1,6 0 0,0
16.11.2018 05:00:00 12,6 12,4 2 1 7 4 ZW 1019,5 0,1 0 0,0
16.11.2018 04:00:00 12,6 12,4 4 2 6 4 WZW 1019,6 0,1 0 0,0
16.11.2018 03:00:00 12,5 12,3 5 3 9 5 WZW 1020,0 0,1 0 0,0
16.11.2018 02:00:00 12,6 12,4 2 1 7 4 N - - 0 0,0
16.11.2018 01:00:00 12,9 12,7 5 3 8 4 NO - - 0 -
16.11.2018 00:00:00 12,6 12,4 3 2 11 6 NNO 1020,5 3,6 0 0,0
15.11.2018 23:00:00 12,7 12,5 6 3 9 5 NNW 1020,0 3,0 0 0,0
15.11.2018 22:00:00 12,8 12,6 3 2 6 4 NW 1019,5 0,1 0 0,0
15.11.2018 21:00:00 13,3 13,2 4 2 10 5 NNW 1019,4 2,0 0 0,0
15.11.2018 20:00:00 13,3 13,2 9 5 16 8 NNW 1019,1 0,6 0 0,0
15.11.2018 19:00:00 13,6 13,3 10 6 14 7 WZW 1018,7 2,2 0 -
15.11.2018 18:00:00 13,7 13,4 5 3 9 5 NNW 1018,2 3,7 0 0,0
15.11.2018 17:00:00 13,7 13,6 6 4 10 5 NW 1018,3 2,3 0 0,0
15.11.2018 16:00:00 14,1 13,8 5 3 9 5 WZW 1018,5 6 0 0,0
15.11.2018 15:00:00 13,5 13,4 6 3 8 5 ZZW 1018,6 0,9 0 0,8
15.11.2018 14:00:00 13,0 12,8 3 2 10 5 Z 1018,7 2,8 0 0,8
15.11.2018 13:00:00 13,1 13,0 8 4 11 6 ZZW 1019,0 0,2 0 -
15.11.2018 12:00:00 13,0 12,8 1 1 9 5 ZZW 1019,5 0,2 0 4,4
15.11.2018 11:00:00 12,8 12,6 5 3 13 7 WNW 1019,7 2,4 0 3,6
15.11.2018 10:00:00 12,6 12,4 12 7 16 9 W 1019,5 1,7 0 1,0
15.11.2018 09:00:00 12,5 12,3 13 7 16 9 W 1018,9 1,6 0 0,0
15.11.2018 08:00:00 12,7 12,5 4 2 9 5 WZW 1018,4 2,4 0 0,2
15.11.2018 07:00:00 12,6 12,4 9 5 14 8 WNW 1018,3 1,7 0 -
15.11.2018 06:00:00 12,6 12,3 8 4 10 6 WNW 1018,4 0,2 0 0,0
15.11.2018 05:00:00 13,4 12,6 9 5 16 9 ONO 1018,1 5 0 0,0
15.11.2018 04:00:00 13,5 13,1 11 6 20 11 O 1018,4 3,9 0 0,0
15.11.2018 03:00:00 13,7 13,3 14 8 20 11 O 1019,0 4,4 0 0,0
15.11.2018 02:00:00 14,1 13,4 15 8 20 11 ONO 1019,3 7 0 0,0
15.11.2018 01:00:00 14,7 13,5 14 8 20 11 O 1019,7 13 0 -
15.11.2018 00:00:00 14,6 13,0 13 7 18 10 O 1020,0 16 0 0,0
14.11.2018 23:00:00 14,7 13,1 16 8 20 11 ONO 1020,2 16 0 0,0
14.11.2018 22:00:00 14,8 13,1 12 6 19 11 O 1020,5 16 0 0,0
14.11.2018 21:00:00 15,2 13,1 15 8 22 12 O 1020,3 18 0 0,0
14.11.2018 20:00:00 16,1 13,1 13 7 19 10 O 1020,4 20 0 0,0
14.11.2018 19:00:00 16,3 12,8 14 8 19 10 ONO 1020,3 20 0 -
14.11.2018 18:00:00 17,3 12,4 13 7 22 12 OZO 1020,1 20 0 0,0
14.11.2018 17:00:00 18,3 12,1 14 8 27 15 OZO 1020,1 20 49 0,0
14.11.2018 16:00:00 18,7 12,2 16 8 29 15 OZO 1020,2 20 55 0,0
14.11.2018 15:00:00 18,4 12,8 16 8 25 14 O 1020,4 20 53 0,0
14.11.2018 14:00:00 17,3 14,0 4 2 8 4 ONO 1021,3 16 53 0,0
14.11.2018 13:00:00 16,3 13,4 3 2 9 5 NO 1022,0 8 53 -
14.11.2018 12:00:00 15,0 13,4 5 3 9 5 ONO 1023,3 7 15 0,0

tt = temperatuur
td = dauwpunt
ff = windsnelheid
fx = windstoten
dd = windrichting
ppp = luchtdruk
vv = zicht
sd = Zonneschijnduur
rr = neerslag

Weerstations in de omgeving